Starlink 11415

operational
NORAD ID: 62592 Int'l Des: 2025-008 Owner: SPXS Country: US Constellation: starlink
LEOCIRCULAR

Starlink 11415について

説明を読み込み中...

リアルタイム位置

3D地球を読み込み中...

次回通過

高度履歴

Altitude vs Time

uPlot chart will show altitude changes over time

軌道要素

1 62592U 25008F 25353.59660210 .00261200 00000-0 19522-2 0 9998
2 62592 42.9981 249.3002 0002180 214.0630 146.0098 15.71125199 54622
Epoch: Dec 19, 2025 • Age: 13 hours

現在のステータス

高度 353.7 km
速度 7.70 km/s
衛星直下点 20.11°N, 93.24°W
打ち上げ日 Jan 13, 2025
運用期間 0.9 years
タイプ internet

技術仕様

分類 Payload
質量 960.00 kg
乾燥質量 910.00 kg
総質量 960.00 kg
長さ 0.30 m
直径 4.10 m
スパン 29.00 m
形状 Box + pan
製造者 SPXS
バスタイプ Starlink V2MD
フェーズステータス In Orbit
所有者/国 SPXS/US

大規模コンステレーション

Loading constellations...